www.pogodaiklimat.ru

Погода и климат >> Архив погоды >> Россия >> Нижегородская область >> Арзамас


ПОГОДА в Арзамасе

АРХИВ ПОГОДЫ в Арзамасе

Время (UTC), дата Ветер
(напр.,м/с)
 
Видим.   Явления Облачность Т
(С)
Тd
(С)
f
(%)
Тe
(С)
Тes
(С)
Комфортность P
(гПа)
Po
(гПа)
Тmin
(С)
Tmax
(С)
R
(мм)
R24
(мм)
S
(см)
00 7.12 В 2-4
{4}
4000 м слабый снег 10/0
[As op]
-2.6 -4.2 89 -7 -7 по сезону 1004.8 989.2
03 7.12 В 2-4
{4}
4000 м {снег} 10/0
[As op]
-2.9 -4.6 88 -7 -7 по сезону 1004.1 988.5 -2.9 0.0 15
06 7.12 В 1-2
{4}
20 км слабый снег 10/0
[As op]
-3.1 -4.5 90 -5 -5 по сезону 1004.1 988.5
09 7.12 СВ 2-3
{4}
20 км {снег} 6/0
[Ac As]
-3.0 -5.0 86 -7 -7 по сезону 1003.9 988.3
12 7.12 СВ 2-4
{4}
20 км слабый снег 10/0
[As op]
-3.4 -5.1 88 -8 -8 по сезону 1004.3 988.7
15 7.12 СВ 2-3
{6}
4000 м {снег} 10/0
[As op]
-3.6 -5.0 90 -8 -8 по сезону 1006.1 990.4 -3.0 1
18 7.12 С 3-4
{5}
4000 м {снег} 10/0
[As op]
-4.1 -6.4 84 -9 -9 по сезону 1007.8 992.1
21 7.12 СЗ 1-4
{5}
4000 м 10/0
[As op]
-3.9 -5.4 89 -6 -6 по сезону 1009.2 993.5
00 8.12 З 1-2
{3}
4000 м 10/0
[As op]
-6.0 -7.1 92 -8 -8 по сезону 1010.9 995.0
03 8.12 СЗ 1-2
{4}
4000 м {снег} 10/0
[Ac und]
-4.7 -6.4 88 -7 -7 по сезону 1011.8 990.2 -6.0 16
06 8.12 СЗ 1-2
{5}
20 км слабый снег 10/0
[As op]
-4.9 -6.2 91 -7 -7 по сезону 1013.6 997.9
09 8.12 СЗ 2-4
{4}
20 км в посл. час снег 10/0
[Ac und]
-4.1 -6.7 82 -8 -8 по сезону 1015.1 999.3
12 8.12 СЗ 1-2
{5}
20 км {снег} ясно -6.2 -8.9 81 -9 -8 по сезону 1016.2 1000.3
15 8.12 З 1-2
{4}
4000 м 10/0
[Ac und]
-8.4 -9.4 92 -11 -11 по сезону 1017.9 1001.8 -4.1 0.0
18 8.12 ЮЗ 1-1
{3}
4000 м 10/0
[Ac und]
-7.5 -8.4 93 -10 -10 по сезону 1018.7 1002.6
21 8.12 Ю 1-2
{3}
4000 м 10/0
[Ac und]
-7.6 -9.4 87 -10 -10 по сезону 1019.3 1003.2
00 9.12 ЮВ 2-3
{3}
4000 м 10/0
[Ac und]
-7.2 -8.5 90 -12 -12 по сезону 1019.1 1003.1
03 9.12 ЮВ 2-4
{5}
4000 м 10/0
[Ac und]
-6.6 -8.6 86 -11 -11 по сезону 1019.1 1003.1 -8.4 16
06 9.12 Ю 2-4
{5}
20 км слабый снег 10/0
[As op]
-6.3 -8.6 84 -11 -11 по сезону 1018.7 1002.7
09 9.12 Ю 3-5
{6}
20 км {снег} 10/0
[As op]
-5.2 -8.1 80 -11 -11 по сезону 1018.2 1002.4
12 9.12 Ю 2-3
{5}
20 км слабый снег 10/0
[As op]
-4.7 -7.1 83 -9 -9 по сезону 1018.2 1002.4
15 9.12 Ю 2-3
{5}
4000 м слабый снег 10/0
[As op]
-4.5 -6.1 89 -9 -9 по сезону 1018.7 1002.8 -4.5 0.3
18 9.12 ЮВ 2-3
{4}
4000 м слабый снег 10/0
[As op]
-4.3 -4.9 96 -9 -9 по сезону 1018.9 1003.0
21 9.12 ЮВ 2-4
{5}
4000 м слабая переохл. морось (гололёд) {снег} [диам. гололёда 1 мм] 10/10 300 м
[St]
-3.9 -4.4 96 -8 -8 по сезону 1019.3 1003.4
00 10.12 Ю 2-3
{4}
4000 м слабая переохл. морось (гололёд) {снег} 10/10 300 м
[St]
-3.4 -4.2 94 -8 -8 по сезону 1019.3 1003.4
03 10.12 ЮВ 2-4
{5}
4000 м слабая переохл. морось (гололёд) 10/10 300 м
[St]
-2.9 -3.3 97 -7 -7 по сезону 1019.3 1003.5 -4.6 0.3 16
06 10.12 ЮВ 3-4
{5}
4000 м дымка {морось} 10/10 300 м
[St]
-2.5 -3.1 96 -8 -8 по сезону 1019.8 1004.0
09 10.12 ЮВ 3-6
{6}
4000 м дымка 10/10 300 м
[St]
-1.5 -2.9 90 -7 -7 по сезону 1019.3 1003.6
12 10.12 ЮВ 3-5
{6}
4000 м дымка 10/10 300 м
[St]
-1.0 -2.3 91 -6 -6 по сезону 1018.8 1003.1
15 10.12 ЮВ 3-7
{7}
4000 м 10/10 300 м
[Sc]
-0.4 -2.8 84 -5 -5 по сезону 1017.8 1002.2 -0.4 0.0
18 10.12 В 3-6
{8}
4000 м 10/10 300 м
[Sc]
+0.1 -2.3 84 -5 -5 по сезону 1017.4 1001.8
21 10.12 ЮВ 3-6
{8}
4000 м слабый дождь 10/0
[As op]
+0.4 -1.0 90 -4 -4 по сезону 1017.7 1002.1
00 11.12 ЮВ 4-7
{8}
4000 м {дождь} 10/10 300 м
[Sc]
+0.3 -0.5 94 -5 -5 тепло 1017.6 1002.0
03 11.12 ЮВ 4-8
{8}
4000 м 10/10 300 м
[Sc]
+0.4 -0.7 92 -5 -5 тепло 1017.3 1001.7 -0.5 3 15
06 11.12 ЮВ 4-8
{9}
20 км 10/0
[Ac trans Ci]
0.0 -2.4 84 -5 -5 тепло 1017.3 1001.7
09 11.12 ЮВ 8-10
{11}
20 км 10/0
[Ac und]
+1.3 -1.9 79 -6 -6 по сезону 1016.6 1001.1
12 11.12 ЮВ 3-5
{9}
20 км 10/0
[Ac und]
+1.4 -0.8 85 -3 -3 тепло 1015.6 1000.1
15 11.12 ЮВ 3-5
{8}
4000 м 10/0
[Ac und]
+1.4 -0.3 88 -3 -3 тепло 1014.7 999.2 +1.4
18 11.12 ЮВ 5-8
{10}
4000 м 10/0
[Ac und]
+1.3 -1.6 81 -4 -4 тепло 1014.7 999.2
21 11.12 Ю 3-5
{9}
4000 м 10/0
[As op]
+0.9 -1.7 83 -4 -4 тепло 1015.3 999.8
00 12.12 Ю 5-8
{10}
4000 м {снег} 10/0
[As op]
+0.6 -2.7 79 -5 -5 тепло 1016.5 1001.0
03 12.12 Ю 2-3
{8}
4000 м 10/0
[Ac und]
-0.2 -2.9 82 -4 -4 тепло 1017.7 1002.1 -0.2 0.0 16
06 12.12 ЮВ 2-4
{6}
20 км слабый снег 10/0
[As op]
-0.2 -2.3 86 -4 -4 тепло 1018.9 1003.2
09 12.12 ЮВ 2-4
{5}
20 км в посл. час снег 10/0
[As op]
+0.4 -1.3 88 -3 -3 тепло 1018.9 1003.3
12 12.12 ЮВ 3-5
{5}
20 км слабый снег 10/0
[As op]
+0.7 -0.1 94 -4 -4 тепло 1019.0 1003.4
15 12.12 ЮВ 2 4000 м {снег, морось} 10/0
[As op]
+0.8 0.0 94 -3 -3 тепло 1019.8 1004.2 2
18 12.12 ЮВ 1-3
{5}
4000 м {снег, морось} 10/0
[As op]
+0.8 0.0 94 -1 -1 тепло 1019.9 1004.3
21 12.12 ЮВ 2-4
{4}
4000 м 10/0
[As op]
+0.8 +0.3 96 -3 -3 тепло 1019.6 1003.7
00 13.12 ЮВ 3-6
{6}
4000 м 10/0
[As op]
+1.0 +0.5 96 -4 -4 тепло 1017.5 1002.0
03 13.12 ЮВ 4-7
{7}
4000 м 10/0
[As op]
+1.3 +0.8 96 -4 -4 тепло 1016.8 1001.3 +0.8 0.0 12
06 13.12 Ю 3-6
{8}
20 км слабая морось {дождь} 10/0
[As op]
+1.6 +0.8 94 -3 -3 тепло 1016.6 1001.1
09 13.12 Ю 3-5
{7}
20 км в посл. час морось 10/10 300 м
[St]
+1.0 +0.5 96 -4 -4 тепло 1016.0 1000.5
12 13.12 Ю 2-5
{7}
2000 м дымка {морось} 10/10 300 м
[St]
+1.6 +1.3 98 -2 -2 тепло 1015.0 999.5
15 13.12 Ю 3-4
{5}
4000 м слабая морось 10/10 300 м
[St]
+1.4 +0.9 96 -3 -3 тепло 1015.2 999.7 +1.7 3
18 13.12 Ю 2-4
{7}
4000 м слабая морось 10/10 300 м
[St]
+1.7 +1.4 98 -2 -2 тепло 1015.7 1000.2
21 13.12 Ю 2-3
{5}
1000 м дымка {морось} 10/10 300 м
[St]
+1.5 +1.2 98 -2 -2 тепло 1015.3 999.8

 

Местоположение метеостанции Арзамас (Нижегородская область, Россия): широта 55.37 долгота 43.78 высота над уровнем моря 124 м.

В архиве по умолчанию представлена погода в Арзамасе за последнюю неделю. Архивные данные за месяц целиком и за предыдущие месяцы, начиная с января 2011 года, Вы можете получить, выбрав интересующий диапазон дат из раскрывающегося списка и нажав кнопку "Ввод!".

Внимание! Время в таблицах - всемирное. Для получения местного времени необходимо прибавить поправку, которая в Арзамасе равна 3 ч.

Смотрите также архив погоды в соседних городах и на ближайших метеорологических станциях:

Погода в Дальнем Константиново (Нижегородская область, Россия) (51 км)
Погода в Лукоянове (Нижегородская область, Россия) (59 км)
Погода в Павлово (Нижегородская область, Россия) (80 км)
Погода в Темникове (Мордовия, Россия) (89 км)
Погода в Нижнем Новгороде аэропорт (Нижегородская область, Россия) (95 км)
Погода в Нижнем Новгороде (Нижегородская область, Россия) (101 км)
Погода в Краснослободске (Мордовия, Россия) (105 км)
Погода в Выксе (Нижегородская область, Россия) (105 км)
Погода в Большом Болдино (Нижегородская область, Россия) (105 км)
Погода в Лысково (Нижегородская область, Россия) (106 км)

Пояснения к столбцам:

Ветер - указаны скорость ветра в м/с - средняя за 10 мин, порывы в срок и между сроками (в фигурных скобках) и направление, откуда дует ветер: С - северный, СВ - северо-восточный, В - восточный, ЮВ - юго-восточный, Ю - южный, ЮЗ - юго-западный, З - западный, СЗ - северо-западный.
Видимость - горизонтальная дальность видимости в метрах или километрах. При видимости от 1 до 10 км при отсутствии осадков обычно наблюдается дымка, при ухудшении видимости до 1 км и менее - туман. В сухую погоду видимость может ухудшаться дымом, пылью или мглою.
Явления - указаны атмосферные явления, наблюдавшиеся в срок или в последний час перед сроком; фигурными скобками обозначены явления, наблюдавшиеся между сроками (за 1-3 часа до срока); квадратными скобками обозначены град или гололедные отложения с указанием их диаметра в мм.
Облачность - указаны через наклонную черту общая и нижняя облачность в баллах и высота нижней границы облаков в метрах; квадратными скобками обозначены формы облаков: Ci - перистые, Cs - перисто-слоистые, Cc - перисто-кучевые, Ac - высококучевые, As - высокослоистые, Sc - слоисто-кучевые, Ns - слоисто-дождевые, Cu - кучевые, Cb - кучево-дождевые. Подробнее классификацию облаков см. в Атласе облаков (PDF).
T - Температура воздуха - температура, измеренная на высоте 2 м над землей.
Td - Температура точки росы - температура, при понижении до которой содержащийся в воздухе водяной пар достигнет насыщения.
f - Относительная влажность воздуха - влажноcть воздуха, измеренная на высоте 2 м над землей.
Te - Эффективная температура - температура, которую ощущает одетый по сезону человек в тени. Характеристика душности погоды. При расчете учитывается влияние влажности воздуха и скорости ветра на теплоощущения человека.
Tes - Эффективная температура на солнце - температура, которую ощущает человек, с поправкой на солнечный нагрев. Характеристика знойности погоды. Зависит от высоты солнца над горизонтом, облачности и скорости ветра. Ночью, в пасмурную погоду, а также при ветре 12 м/с и более поправка равна нулю.
P - Атмосферное давление - приведенное к уровню моря атмосферное давление.
Po - Атмосферное давление - измеренное на уровне метеостанции атмосферное давление.
Tmin - Минимальная температура - минимум температуры воздуха на высоте 2 м над землей.
Tmax - Максимальная температура - максимум температуры воздуха на высоте 2 м над землей.
R - Количество осадков - Количество выпавших осадков за период времени, мм. При наведении курсора мыши на число - период времени, за который выпало указанное количество осадков.
R24 - Количество осадков - Количество выпавших осадков за 24 часа, мм.
S - Снежный покров - Высота снежного покрова, см. При наведении курсора мыши на число - состояние снежного покрова и степень покрытия местности в баллах.